Content
SEND FEEDBACK

Daily
Averages
Monthly
Summary
United States of America

SOUTH LAKE TAHOE, CALIFORNIA


Home > North America > United States > California
Elevation: 6263 feet     Latitude: 38 53N     Longitude: 119 59W

WEATHER
 
SELECT A DAY
Number of Records: 176,518;   Date Range: 1/1/95 - 9/30/14
 
SHARE

PRINT THIS DATA

[ ← Previous Day ]
WEATHER ALMANAC - NOVEMBER 9, 2013
[ Next Day → ]
[ °C ]   °F
Weather ElementAverageHighLow
Temperature41.1 °F62.1 °F (1:53 pm)26.1 °F (5:53 am)
Dewpoint23 °F32 °F (9:53 am)19 °F (3:53 am)
Humidity52.9 %75 % (5:53 am)21 % (2:53 pm)
Barometer30.12 in30.20 in (7:53 pm)30.05 in (1:53 pm)
Wind Speed2.2 mph8.1 mph (2:53 pm)
Weather ElementAverage
Visibility10 mi
Wind DirectionNE (49.1 °)

Weather ElementTotal
Precipitation---
Heating Degree Days20.9 (Base 65)
Averaged from 23 records on November 9, 2013
WEATHER CONDITIONS BREAKOUT
WIND DIRECTION BREAKOUT
WEATHER BY HOUR - NOVEMBER 9, 2013
[ °C ]   °F
Local TimeTemperatureDewpointHumidityBarometerVisibilityWind DirectionWind SpeedGust SpeedPrecipitationEventsConditions
1:53 AM28.9 °F19.9 °F69 %30.06 in10.0 miSSW (200°)3.5 mphClear
2:53 AM28.9 °F19.9 °F69 %30.07 in10.0 miCalmClear
3:53 AM28.0 °F19.0 °F69 %30.08 in10.0 miCalmClear
4:53 AM28.0 °F19.9 °F72 %30.10 in10.0 miCalmClear
5:53 AM26.1 °F19.0 °F75 %30.12 in10.0 miCalmClear
6:53 AM26.1 °F19.0 °F75 %30.14 in10.0 miSSW (200°)3.5 mphClear
7:53 AM30.0 °F21.0 °F69 %30.16 in10.0 miCalmClear
8:53 AM41.0 °F25.0 °F53 %30.13 in10.0 miCalmClear
9:53 AM53.1 °F32.0 °F45 %30.11 in10.0 miNE (40°)4.6 mphClear
10:53 AM57.0 °F28.0 °F33 %30.10 in10.0 miNE (50°)5.8 mphClear
11:53 AM60.1 °F27.0 °F28 %30.07 in10.0 miVariable3.5 mphClear
12:53 PM61.0 °F26.1 °F26 %30.06 in10.0 miNorth (10°)4.6 mphClear
1:53 PM62.1 °F26.1 °F25 %30.05 in10.0 miNE (40°)5.8 mphClear
2:53 PM62.1 °F21.9 °F21 %30.05 in10.0 miSouth (190°)8.1 mphClear
3:53 PM57.9 °F23.0 °F26 %30.08 in10.0 miVariable3.5 mphClear
4:53 PM50.0 °F24.1 °F36 %30.11 in10.0 miCalmClear
5:53 PM44.1 °F24.1 °F45 %30.16 in10.0 miCalmClear
6:53 PM39.9 °F24.1 °F53 %30.19 in10.0 miCalmClear
7:53 PM36.0 °F23.0 °F59 %30.20 in10.0 miSSW (200°)3.5 mphClear
8:53 PM34.0 °F23.0 °F64 %30.18 in10.0 miCalmClear
9:53 PM33.1 °F21.9 °F64 %30.17 in10.0 miSSW (200°)3.5 mphClear
10:53 PM30.0 °F21.0 °F69 %30.15 in10.0 miCalmClear
11:53 PM28.9 °F21.0 °F72 %30.15 in10.0 miCalmClear
Hourly data recorded from KTVL, located miles away from South Lake Tahoe, California







STORIES FROM OUR PARTNERS